Regional Weather Roundup
Issued by NWS Northern Indiana

Home | Current Version | Previous Version | Graphics & Text | Print | Product List | Glossary On
Versions: 1 2 3 4 5 6 7 8 9 10 11 12 13 14 15 16 17 18 19 20 21 22 23 24 25 26 27 28 29 30 31 32 33 34 35 36 37 38 39 40 41 42 43 44 45 46 47 48 49 50
000
ASUS43 KIWX 200010
RWRIWX

KIWX WEATHER ROUNDUP
NATIONAL WEATHER SERVICE NORTHERN INDIANA
700 PM EST THU JAN 19 2017

NOTE: "FAIR" INDICATES FEW OR NO CLOUDS BELOW 12,000 FEET WITH NO
SIGNIFICANT WEATHER AND/OR OBSTRUCTIONS TO VISIBILITY.

* THESE STATIONS ARE NOT UNDER NWS QUALITY CONTROL. THEY ALSO MAY NOT
  REPORT WEATHER SUCH AS PRECIPITATION OR FOG.

INZ001>027-200100-
NORTHERN INDIANA

CITY           SKY/WX    TMP DP  RH WIND       PRES   REMARKS
GARY*          LGT RAIN  41  37  87 E6        29.85F
VALPARAISO     LGT RAIN  39  37  92 E9        29.85F FOG
6HR MIN TEMP:  39; 6HR MAX TEMP:  41; 6HR PCP: TRACE;

LAPORTE*       CLOUDY    37  36  95 SE5       29.87S FOG
6HR MIN TEMP:  37; 6HR MAX TEMP:  39;

KNOX*          CLOUDY    37  25  60 E3        29.87F
SOUTH BEND     CLOUDY    38  35  89 SE8       29.87F
6HR MIN TEMP:  37; 6HR MAX TEMP:  39;

ELKHART*       MOCLDY    37  34  87 E9        29.86F FOG
GOSHEN         MOCLDY    37  33  85 E8        29.87F FOG
6HR MIN TEMP:  37; 6HR MAX TEMP:  40;

ROCHESTER*     MOCLDY    41  37  87 SE8       29.88R
WARSAW*        CLOUDY    37  30  75 E9        29.87S
FORT WAYNE     CLOUDY    40  36  86 E10       29.89F
6HR MIN TEMP:  39; 6HR MAX TEMP:  44;

PERU/GRISSOM   LGT RAIN  40  40 100 E6        29.87R
6HR MIN TEMP:  38; 6HR MAX TEMP:  41; 6HR PCP: TRACE;

MARION*        CLOUDY    41  37  87 E8        29.88R

$$
INZ028>050-200100-
CENTRAL INDIANA

CITY           SKY/WX    TMP DP  RH WIND       PRES   REMARKS
LAFAYETTE      RAIN      41  40  96 E10       29.84F FOG
6HR MIN TEMP:  41; 6HR MAX TEMP:  44; 6HR PCP:  0.18;

KOKOMO*        LGT RAIN  41  39  93 E6        29.89R FOG
6HR MIN TEMP:  39; 6HR MAX TEMP:  41; 6HR PCP: TRACE;

MUNCIE*        CLOUDY    44  39  82 E8        29.86S
6HR MIN TEMP:  43; 6HR MAX TEMP:  46;

INDIANAPOLIS   RAIN      44  41  89 E7        29.83F FOG
6HR MIN TEMP:  44; 6HR MAX TEMP:  46; 6HR PCP:  0.16;


$$
MIZ043>046-050>051-056>058-064>065-071>073-077>080-200100-
SOUTHWEST LOWER MICHIGAN

CITY           SKY/WX    TMP DP  RH WIND       PRES   REMARKS
BATTLE CREEK   PTCLDY    38  35  89 SE3       29.91S
6HR MIN TEMP:  38; 6HR MAX TEMP:  42;

BENTON HARBOR  CLOUDY    40  35  83 E6        29.87F
6HR MIN TEMP:  39; 6HR MAX TEMP:  42;

COLDWATER*     PTCLDY    36  35  98 SE6       29.91F FOG
6HR MIN TEMP:  36; 6HR MAX TEMP:  39;

HILLSDALE*     CLOUDY    34  32  93 SE6       29.91S FOG     WCI  29
HOLLAND        MOCLDY    36  34  92 E3        29.91R
6HR MIN TEMP:  35; 6HR MAX TEMP:  39;

GRAND RAPIDS   CLOUDY    36  31  82 E3        29.92R
6HR MIN TEMP:  36; 6HR MAX TEMP:  41;

KALAMAZOO      CLOUDY    38  33  82 SE6       29.91S
6HR MIN TEMP:  38; 6HR MAX TEMP:  41;

STURGIS*       CLOUDY    35  34  94 E6        29.89F FOG     WCI  30
6HR MIN TEMP:  35; 6HR MAX TEMP:  40;

THREE RIVERS*  FAIR      37  33  89 SE3       29.91S
6HR MIN TEMP:  36; 6HR MAX TEMP:  40;


$$
OHZ001>008-015>018-024>025-200100-
NORTHWEST OHIO

CITY           SKY/WX    TMP DP  RH WIND       PRES   REMARKS
DEFIANCE       PTCLDY    36  34  92 E6        29.93F
6HR MIN TEMP:  36; 6HR MAX TEMP:  38;

FINDLAY        CLOUDY    39  34  82 E6        29.93F
6HR MIN TEMP:  39; 6HR MAX TEMP:  41;

TOLEDO EXPRESS CLOUDY    37  36  96 E3        29.94F
6HR MIN TEMP:  36; 6HR MAX TEMP:  39;

TOLEDO METCALF PTCLDY    38  36  92 E3        29.96F
6HR MIN TEMP:  37; 6HR MAX TEMP:  40;

LIMA           PTCLDY    39  37  92 E7        29.91F
6HR MIN TEMP:  38; 6HR MAX TEMP:  41;


$$
AND FOR LAKE MICHIGAN COASTAL AND OPEN LAKE BUOY OBSERVATIONS

STATION/POSITION TEMP    WIND        PRES    VSBY  WAVE
                 AIR SEA DIR/SP/G                  HT/PER
                 (F)     (DEG/KT/KT) (MB)    (MI)  (FT/S)
CALUMET HARBOR    36     110/  5/  6 1010.7F
MICHIGAN CITY     39     110/  6/  7   N/A
BURNS HARBOR      40     110/  7/ 14 1011.5

$$
&&



USA.gov is the U.S. government's official web portal to all federal, state and local government web resources and services.